AirNav   Air Wisconsin pilot careers
 
 513 users online  

2AK1 Blair Lake Airport
Fairbanks (Ft Wainwright), Alaska, USA


FAA INFORMATION EFFECTIVE 09 NOVEMBER 2017

Location

FAA Identifier: 2AK1
Lat/Long: 64-21-49.4610N / 147-21-49.5290W
64-21.824350N / 147-21.825483W
64.3637392 / -147.3637581
(estimated)
Elevation: 910 ft. / 277 m (estimated)
Variation: 28E (1985)
From city: 29 miles SE of central business district of the associated city
Time zone: UTC -9 (UTC -8 during Daylight Saving Time)
Zip code: 99714

Airport Operations

Airport use: Private use. Permission required prior to landing
Activation date: 06/1971
Control tower: no
ARTCC: ANCHORAGE CENTER
FSS: FAIRBANKS FLIGHT SERVICE STATION [907-474-0788]
Attendance: UNATNDD
Wind indicator: yes
Segmented circle: no

Nearby radio navigation aids

VOR radial/distance  VOR name  Freq  Var
FAIr126/31.0FAIRBANKS VORTAC108.6021E

 
NDB name  Hdg/Dist  Freq  Var  ID
CHENA152/28.725721ECUN -.-. ..- -.

Airport Services

Airframe service: NONE
Powerplant service: NONE
Bottled oxygen: NONE
Bulk oxygen: NONE

Runway Information

Runway 15/33

Dimensions: 1530 x 50 ft. / 466 x 15 m
Surface: turf
RUNWAY 15  RUNWAY 33
Gradient: 1.5%1.5%
Traffic pattern: leftleft
Markings: nonenone
Runway end identifier lights: nono
Obstructions: trees, 800 ft. from runway, 15:1 slope to cleartrees hill, 2500 ft. from runway, 15:1 slope to clear

Airport Ownership and Management from official FAA records

Ownership: U.S. Army
Owner: U.S. ARMY
DPTSM
FT. RICHARDSON, AK 99505
Phone 907-384-2230
Manager: OPNS OFFICER
WAAF
FT WAINWRIGHT, AK 99703
Phone 907-353-6320

Airport Operational Statistics

Aircraft operations: avg 25/month *
67% military
33% transient general aviation
* for 12-month period ending 07 July 1976

Additional Remarks

WASHED AREA NEAR PARKING AREA.
SHRUBS 3' - 8'HIGH ON BOTH SIDES OF RWY.

Instrument Procedures

There are no published instrument procedures at 2AK1.

Some nearby airports with instrument procedures:

PAEI - Eielson Air Force Base (19 nm N)
PAFB - Ladd Army Airfield (29 nm N)
PAFA - Fairbanks International Airport (30 nm NW)
PANN - Nenana Municipal Airport (46 nm W)
PABI - Allen Army Airfield (48 nm SE)
 
Loc | Ops | Rwys | IFR | FBO | Links
Com | Nav | Svcs | Stats | Notes

Crowley
 
Area around 2AK1 (Blair Lake Airport)
 
Road maps at: MapQuest Bing Google
 
Aerial photo
WARNING: Photo may not be current or correct
Aerial photo of 2AK1 (Blair Lake Airport)
Do you have a better or more recent aerial photo of Blair Lake Airport that you would like to share? If so, please send us your photo.

 
Sectional chart

 
Airport distance calculator
Flying to Blair Lake Airport? Find the distance to fly.

From to 2AK1

Sunrise and sunset
Times for 21-Nov-2017
 Local
(UTC-9)
 Zulu
(UTC)
Morning civil twilight08:3717:37
Sunrise09:4118:41
Sunset15:2900:29
Evening civil twilight16:3401:34

Current date and time
Zulu (UTC)  22-Nov-2017 05:44:10
Local (UTC-9)  21-Nov-2017 20:44:10
 
METAR
PAEI 
19nm N 
220456Z 00000KT 2SM -SN BR OVC019 M17/M20 A2986 RMK AO2A CIG 019V023 OVC V BKN SLP132 P0000 T11731197 $
PAFB 
29nm N 
220458Z AUTO 00000KT 7SM -SN FEW006 SCT011 OVC022 M17/M18 A2989 RMK AO2 OVC V BKN SLP141 P0000 T11671185
PAFA 
30nm NW 
220528Z 02003KT 4SM -SN BR BKN029 OVC034 M17/M18 A2987 RMK AO2 T11671183
TAF
PAEI 
19nm N 
220400Z 2204/2310 VRB06KT 3200 -SN BR FEW019 BKN030 620307 QNH2980INS BECMG 2216/2217 VRB06KT 4800 -SN BR BKN015 620158 QNH2976INS BECMG 2221/2222 VRB06KT 8000 BR BKN015 620158 QNH2974INS TXM12/2220Z TNM17/2204Z
NOTAMs
Click for the latest NOTAMs
NOTAMs are issued by the DoD/FAA and will open in a separate window not controlled by AirNav.

 

 
 

Would you like to see your business listed on this page?

 If your business provides an interesting product or service to pilots, flight crews, aircraft, or users of the Blair Lake Airport, you should consider listing it here.  To start the listing process, click on the button below
 
Add a business
 

Other Pages about Blair Lake Airport

Update a link
 
Copyright © AirNav, LLC. All rights reserved. Privacy Policy  Contact